This demonstration page uses our WeatherBlox Daily Observations layout. Learn more.

Left ArrowRight Arrow

39.08367, -84.50855

Hourly Observations for December 21, 2020

Temp ( °F °C ) Dew Point ( °F °C ) Humidity (%) Winds ( mph kmh ) Pressure ( in mb ) Visibility ( mi km ) Precip ( " mm )
12:53 am 00:53 Partly Cloudy with Mist and Fog 31 -0.6 29 -1.7 92 92 N N/A 29.93 1014 2 2 N/A
12:57 am 00:57 Mostly Cloudy with Mist and Fog 30 -1.1 28 -2.2 92 92 N N/A 29.95 1014 1 1 N/A
1:20 am 01:20 Mostly Cloudy with Freezing Fog 29 -1.7 27 -2.8 92 92 N N/A 29.95 1014 0 0 N/A
1:30 am 01:30 Partly Cloudy with Freezing Fog 28 -2.2 27 -2.8 96 96 N N/A 29.94 1014 1 1 N/A
1:39 am 01:39 Mostly Clear with Freezing Fog 30 -1.1 29 -1.7 96 96 N N/A 29.94 1014 0 0 N/A
1:46 am 01:46 Mostly Cloudy with Freezing Fog 28 -2.2 27 -2.8 96 96 N N/A 29.94 1014 0 0 N/A
1:53 am 01:53 Mostly Cloudy with Freezing Fog 29 -1.7 27 -2.8 92 92 N N/A 29.92 1013 1 1 N/A
2:08 am 02:08 Clear with Freezing Fog 29 -1.7 28 -2.2 96 96 N N/A 29.94 1014 0 0 N/A
2:10 am 02:10 Mostly Cloudy with Freezing Fog 27 -2.8 27 -2.8 100 100 N N/A 29.94 1014 0 0 N/A
2:53 am 02:53 Mostly Cloudy with Freezing Fog 27 -2.8 25 -3.9 92 92 N N/A 29.92 1013 0 0 N/A
3:53 am 03:53 Mostly Cloudy with Freezing Fog 28 -2.2 27 -2.8 96 96 N N/A 29.90 1013 0 0 N/A
4:53 am 04:53 Cloudy with Freezing Fog 29 -1.7 28 -2.2 96 96 N N/A 29.88 1012 0 0 N/A
5:00 am 05:00 Cloudy with Mist and Fog 29 -1.7 29 -1.7 100 100 N N/A 29.90 1013 1 1 N/A
5:12 am 05:12 Cloudy with Mist and Fog 30 -1.1 29 -1.7 96 96 N N/A 29.91 1013 2 2 N/A
5:16 am 05:16 Cloudy with Mist and Fog 31 -0.6 30 -1.1 96 96 N N/A 29.91 1013 3 5 N/A
5:53 am 05:53 Cloudy 32 undefined 32 undefined 100 100 N N/A 29.89 1012 8 13 N/A
6:53 am 06:53 Cloudy 37 2.8 34 1.1 89 89 WSW 10 17 29.89 1012 7 11 N/A
7:53 am 07:53 Cloudy 38 3.3 35 1.7 89 89 SW 7 11 29.88 1012 9 14 N/A
8:53 am 08:53 Cloudy 39 3.9 35 1.7 86 86 SW 9 15 29.88 1012 7 11 N/A
9:53 am 09:53 Cloudy 39 3.9 36 2.2 89 89 S 10 17 29.86 1011 7 11 N/A
10:26 am 10:26 Cloudy with Mist and Fog 39 3.9 36 2.2 89 89 S 12 19 29.87 1012 6 10 N/A
10:53 am 10:53 Cloudy 39 3.9 36 2.2 89 89 S 10 17 29.85 1011 7 11 N/A
11:53 am 11:53 Cloudy 41 5 37 2.8 86 86 SSW 13 20 29.81 1010 8 13 N/A
12:53 pm 12:53 Mostly Cloudy with Light Rain 42 5.6 37 2.8 82 82 SSW 15 24 29.78 1008 10 16 0.00 0.00
1:53 pm 13:53 Cloudy with Light Rain 43 6.1 37 2.8 80 80 SW 12 19 29.77 1008 10 16 0.00 0.00
2:53 pm 14:53 Cloudy 46 7.8 38 3.3 73 73 SW 15 24 29.76 1008 10 16 0.00 0.00
3:00 pm 15:00 Cloudy 46 7.8 38 3.3 73 73 SW 14 22 29.76 1008 10 16 N/A
3:53 pm 15:53 Cloudy 45 7.2 38 3.3 77 77 SW 10 17 29.77 1008 10 16 0.00 0.00
4:53 pm 16:53 Mostly Sunny 45 7.2 37 2.8 74 74 SW 12 19 29.78 1008 10 16 N/A
5:53 pm 17:53 Clear 42 5.6 35 1.7 76 76 SW 8 13 29.80 1009 10 16 N/A
6:53 pm 18:53 Cloudy 44 6.7 36 2.2 73 73 SW 9 15 29.83 1010 10 16 N/A
7:53 pm 19:53 Cloudy 46 7.8 32 undefined 58 58 SSW 10 17 29.84 1010 10 16 N/A
8:53 pm 20:53 Mostly Cloudy 45 7.2 31 -0.6 58 58 SW 9 15 29.85 1011 10 16 N/A
9:53 pm 21:53 Mostly Cloudy 45 7.2 30 -1.1 56 56 WSW 9 15 29.86 1011 10 16 N/A
10:53 pm 22:53 Cloudy 45 7.2 28 -2.2 52 52 W 21 33 29.89 1012 10 16 N/A
11:53 pm 23:53 Cloudy 44 6.7 26 -3.3 49 49 W 18 30 29.90 1013 10 16 N/A

Powered by AerisWeather